LB9GJ Weather Reports


time (UTC)temp
F
wind
direction
speed
knots
gust
knots
rain 1hr
in
rain 24hr
in
rain mn
in
humidity
%
barometer
mb
20260507233002 29 244 0.0 0.0 0.00 0.00 0.00 59 1010.6
20260507231502 30 244 0.0 0.0 0.00 0.00 0.00 59 1010.6
20260507230002 31 244 0.0 0.0 0.00 0.00 0.00 59 1010.6
20260507224502 32 244 0.0 0.0 0.00 0.00 0.00 59 1010.6
20260507223002 33 122 0.0 0.0 0.00 0.00 0.00 59 1010.6
20260507221502 31 122 0.0 0.0 0.00 0.00 0.00 59 1010.6
20260507220002 33 122 0.0 0.0 0.00 0.00 0.00 59 1010.6
20260507214502 32 112 0.0 0.0 0.00 0.00 0.00 59 1010.6
20260507213002 32 112 0.0 0.0 0.00 0.00 0.00 59 1010.6
20260507211502 33 340 0.0 0.0 0.00 0.00 0.00 59 1010.6
20260507210002 33 340 0.0 0.0 0.00 0.00 0.00 59 1010.6
20260507204502 34 340 3.5 0.0 0.00 0.00 0.00 59 1010.6
20260507203002 33 314 4.3 0.0 0.00 0.00 0.00 59 1010.6
20260507201502 34 314 5.2 0.0 0.00 0.00 0.00 59 1010.6
20260507200002 35 277 5.2 0.0 0.00 0.00 0.00 59 1010.6
20260507194502 34 277 2.6 0.0 0.00 0.00 0.00 59 1010.6
20260507193002 35 277 1.7 0.0 0.00 0.00 0.00 59 1010.6
20260507191502 36 264 1.7 0.0 0.00 0.00 0.00 59 1010.6
20260507190003 37 264 2.6 0.0 0.00 0.00 0.00 59 1010.6
20260507184502 38 240 0.9 0.0 0.00 0.00 0.00 59 1010.6
20260507183001 39 240 0.0 0.0 0.00 0.00 0.00 59 1010.6
20260507181502 39 240 0.0 0.0 0.00 0.00 0.00 59 1010.6
20260507180003 41 240 0.0 0.0 0.00 0.00 0.00 59 1010.6
20260507174502 42 240 0.0 0.0 0.00 0.00 0.00 59 1010.6
20260507173003 42 240 0.0 0.0 0.00 0.00 0.00 59 1010.6
20260507171502 41 240 0.0 0.0 0.00 0.00 0.00 59 1010.6
20260507170003 42 240 3.5 0.0 0.00 0.00 0.00 59 1010.6
20260507164502 43 240 4.3 0.0 0.00 0.00 0.00 59 1010.6
20260507163003 44 240 3.5 0.0 0.00 0.00 0.00 59 1010.6
20260507161501 44 240 3.5 0.0 0.00 0.00 0.00 59 1010.6
20260507160002 45 236 5.2 0.0 0.00 0.00 0.00 59 1010.6
20260507154502 47 236 0.9 0.0 0.00 0.00 0.00 59 1010.6
20260507153002 49 236 3.5 0.0 0.00 0.00 0.00 59 1010.6
20260507151502 50 236 4.3 0.0 0.00 0.00 0.00 59 1010.6
20260507150003 49 236 3.5 0.0 0.00 0.00 0.00 59 1010.6
20260507144501 51 256 5.2 0.0 0.00 0.00 0.00 59 1010.6
20260507143002 52 256 3.5 0.0 0.00 0.00 0.00 59 1010.6
20260507141502 52 256 7.0 0.0 0.00 0.00 0.00 59 1010.6
20260507140002 55 352 6.1 0.0 0.00 0.00 0.00 59 1010.6
20260507134502 52 352 6.1 0.0 0.00 0.00 0.00 59 1010.6
20260507133002 53 352 6.1 0.0 0.00 0.00 0.00 59 1010.6
20260507131501 58 352 7.0 0.0 0.00 0.00 0.00 59 1010.6
20260507130002 63 352 3.5 0.0 0.00 0.00 0.00 59 1010.6
20260507124501 65 337 5.2 0.0 0.00 0.00 0.00 59 1010.6
20260507123002 64 337 3.5 0.0 0.00 0.00 0.00 59 1010.6
20260507121502 49 331 1.7 0.0 0.00 0.00 0.00 59 1010.6
20260507120002 58 331 3.5 0.0 0.00 0.00 0.00 59 1010.6
20260507114501 57 331 4.3 0.0 0.00 0.00 0.00 59 1010.6
20260507113002 64 331 6.1 0.0 0.00 0.00 0.00 59 1010.6
20260507111503 64 331 5.2 0.0 0.00 0.00 0.00 59 1010.6
20260507110002 52 328 8.7 0.0 0.00 0.00 0.00 59 1010.6
20260507104502 62 328 4.3 0.0 0.00 0.00 0.00 59 1010.6
20260507103002 62 328 5.2 0.0 0.00 0.00 0.00 59 1010.6
20260507101502 64 333 5.2 0.0 0.00 0.00 0.00 59 1010.6
20260507100002 64 333 4.3 0.0 0.00 0.00 0.00 59 1010.6
20260507094501 60 333 6.1 0.0 0.00 0.00 0.00 59 1010.6
20260507091502 59 333 6.1 0.0 0.00 0.00 0.00 59 1010.6
20260507090002 63 333 4.3 0.0 0.00 0.00 0.00 59 1010.6
20260507084502 57 333 5.2 0.0 0.00 0.00 0.00 59 1010.6
20260507083002 48 333 6.1 0.0 0.00 0.00 0.00 59 1010.6
20260507081502 46 325 5.2 0.0 0.00 0.00 0.00 59 1010.6
20260507080002 50 325 5.2 0.0 0.00 0.00 0.00 59 1010.6
20260507074502 48 325 6.1 0.0 0.00 0.00 0.00 59 1010.6
20260507073002 47 325 6.1 0.0 0.00 0.00 0.00 59 1010.6
20260507071502 48 325 5.2 0.0 0.00 0.00 0.00 59 1010.6
20260507070003 43 325 6.1 0.0 0.00 0.00 0.00 59 1010.6
20260507064502 40 325 6.1 0.0 0.00 0.00 0.00 59 1010.6
20260507063002 41 316 5.2 0.0 0.00 0.00 0.00 59 1010.6
20260507061502 38 316 7.0 0.0 0.00 0.00 0.00 59 1010.6
20260507060002 36 316 6.1 0.0 0.00 0.00 0.00 59 1010.6
20260507054502 36 314 1.7 0.0 0.00 0.00 0.00 59 1010.6
20260507053003 33 314 2.6 0.0 0.00 0.00 0.00 59 1010.6
20260507051502 29 314 0.0 0.0 0.00 0.00 0.00 59 1010.6
20260507050002 28 314 3.5 0.0 0.00 0.00 0.00 59 1010.6
20260507044502 27 314 5.2 0.0 0.00 0.00 0.00 59 1010.6
20260507043002 27 314 5.2 0.0 0.00 0.00 0.00 59 1010.6
20260507041502 26 314 1.7 0.0 0.00 0.00 0.00 59 1010.6
20260507040002 25 314 3.5 0.0 0.00 0.00 0.00 59 1010.6
20260507034502 24 316 6.1 0.0 0.00 0.00 0.00 59 1010.6
20260507033001 24 316 6.1 0.0 0.00 0.00 0.00 59 1010.6
20260507031502 23 316 3.5 0.0 0.00 0.00 0.00 59 1010.6
20260507030002 24 316 4.3 0.0 0.00 0.00 0.00 59 1010.6
20260507024502 24 316 5.2 0.0 0.00 0.00 0.00 59 1010.6
20260507023002 23 310 4.3 0.0 0.00 0.00 0.00 59 1010.6
20260507021502 22 310 1.7 0.0 0.00 0.00 0.00 59 1010.6
20260507020002 23 312 2.6 0.0 0.00 0.00 0.00 59 1010.6
20260507014502 23 312 2.6 0.0 0.00 0.00 0.00 59 1010.6
20260507013002 23 312 3.5 0.0 0.00 0.00 0.00 59 1010.6
20260507011502 22 312 3.5 0.0 0.00 0.00 0.00 59 1010.6
20260507010002 22 312 2.6 0.0 0.00 0.00 0.00 59 1010.6
20260507004502 23 308 1.7 0.0 0.00 0.00 0.00 59 1010.6
20260507003002 24 308 5.2 0.0 0.00 0.00 0.00 59 1010.6
20260507001502 25 308 4.3 0.0 0.00 0.00 0.00 59 1010.6
20260507000002 25 304 6.1 0.0 0.00 0.00 0.00 59 1010.6
20260506234502 24 304 5.2 0.0 0.00 0.00 0.00 59 1010.6